Regional Weather Roundup
Issued by NWS

Home | Current Version | Previous Version | Text Only | Print | Product List | Glossary Off
Versions: 1 2 3 4 5 6 7 8 9 10 11 12 13 14 15 16 17 18 19 20 21 22 23 24 25 26 27 28 29 30 31 32 33 34 35 36 37 38 39 40 41 42 43 44 45 46 47 48 49 50

000
ASUS43 KLSX 081007
RWRMO

WEATHER SUMMARY FOR MISSOURI
NATIONAL WEATHER SERVICE SPRINGFIELD MO
400 AM CST MON FEB 08 2016

NOTE: "FAIR" INDICATES FEW OR NO CLOUDS BELOW 12,000 FEET WITH NO
       SIGNIFICANT WEATHER AND/OR OBSTRUCTIONS TO VISIBILITY.
       CURRENT SKY AND/OR WEATHER CONDITIONS ARE NOT AVAILABLE FOR
       CHILLICOTHE AND FARMINGTON.

MOZ001>031-035>038-043-044-053-054-081100-
...NORTHERN AND WESTERN MISSOURI...

CITY           SKY/WX    TMP DP  RH WIND       PRES   REMARKS
KANSAS CTY INT FLURRIES  33  22  63 NW16G28   29.97F WCI  23
KANSAS C DTWN  CLOUDY    36  21  54 NW20G30   29.98F WCI  25
LEE`S SUMMIT   CLOUDY    34  20  56 NW17G26   29.97F WCI  23
ST JOSEPH      CLOUDY    34  20  56 NW26G43   29.97F WCI  21
CHILLICOTHE      N/A     30  21  69 NW13G24   29.93F WCI  20
KIRKSVILLE     CLOUDY    26  17  68 NW22G31   29.84S WCI  12

$$
MOZ066>068-077>081-088>096-101>105-081100-
...SOUTHWEST MISSOURI...

CITY           SKY/WX    TMP DP  RH WIND       PRES   REMARKS
SPRINGFIELD    CLOUDY    37  22  54 NW20G32   29.96R WCI  27
JOPLIN         PTCLDY    34  21  59 NW14      30.06R WCI  25

$$
MOZ032>034-039>042-045>050-055>058-069>072-081100-
...CENTRAL MISSOURI...

CITY           SKY/WX    TMP DP  RH WIND       PRES   REMARKS
COLUMBIA       FLURRIES  33  24  69 NW20G30   29.86S WCI  21
JEFFERSON CITY FLURRIES  33  27  78 W13       29.89S WCI  24
ROLLA          LGT SNOW  31  28  89 W13G24    29.83F FOG     WCI  21
SEDALIA        FLURRIES  32  24  72 NW25G36   29.93R WCI  19
WHITEMAN AFB   CLOUDY    33  19  55 NW26G37   29.93S WCI  20
WARRENSBURG    CLOUDY    32  21  64 NW18G26   29.97S WCI  20
OSAGE BEACH    CLOUDY    36  19  51 W12G23    29.90S WCI  27

$$
MOZ051-052-059>065-081100-
...EAST CENTRAL MISSOURI...

CITY           SKY/WX    TMP DP  RH WIND       PRES   REMARKS
ST LOUIS INTL  CLOUDY    38  23  55 W24G30    29.78F WCI  27
SPIRIT OF STL  CLOUDY    37  24  59 W12G22    29.80F WCI  29
ST CHARLES     CLOUDY    37  26  64 W23G29    29.78F WCI  26

$$
MOZ072>076-082>087-097>100-106>115-081100-
...SOUTH CENTRAL AND SOUTHEAST MISSOURI...

CITY           SKY/WX    TMP DP  RH WIND       PRES   REMARKS
CAPE GIRARDEAU PTCLDY    36  26  67 NW14      29.83F WCI  27
FARMINGTON     CLOUDY    37  25  61 W12       29.81F WCI  29
POPLAR BLUFF   MOCLDY    41  23  48 W14       29.85F
WEST PLAINS    CLOUDY    38  22  52 NW10G20   29.89F

$$


USA.gov is the U.S. government's official web portal to all federal, state and local government web resources and services.